Tracking 32938 objects as of 13-Jan-2026
HD Live streaming from Space Station
objects crossing your sky now

PSLV DEB

Track PSLV DEB now!
10-day predictions


NORAD ID: 27142
Int'l Code: 2001-049CN
Perigee: 655.4 km
Apogee: 1,053.3 km
Inclination: 97.4 °
Period: 101.9 minutes
Semi major axis: 7225 km
RCS: 0.0118 m2 (small)
Launch date: October 22, 2001
Source: India (IND)
Launch site: SRIHARIKOTA (SRI)

Note: This is SATELLITE DEBRIS
Your satellite tracking list
Your tracking list is empty




NASA's NSSDC Master Catalog

Two Line Element Set (TLE):
1 27142U 01049CN  26012.09535087  .00000295  00000-0  12341-3 0  9998
2 27142  97.3846  80.9851 0275371 292.6415  64.5854 14.13562358236933
Source of the keplerian elements: AFSPC